Location: Tr�vern
(48.0333°N, 4.6000°W)
Time: 07:30:32
(UTC+00:00)

IDEFIX/ARIANE 42P - Pass Details

Date: 14 July 2020
Orbit: 784 x 804 km, 98.4° (Epoch: 04 August)

Event Time Altitude Azimuth Distance (km) Brightness Sun altitude
Rises 03:32:50 0° 15° (NNE) 3,294 7.0 -8.6°
Reaches altitude 10° 03:35:11 10° 17° (NNE) 2,359 6.2 -8.3°
Maximum altitude 03:40:24 75° 103° (ESE) 816 2.8 -7.7°
Drops below altitude 10° 03:45:33 10° 189° (S) 2,337 4.5 -7.1°
Enters shadow 03:47:22 - 191° (S) 3,063 5.1 -6.9°
